Time,TemperatureF,DewpointF,PressureIn,WindDirection,WindDirectionDegrees,WindSpeedMPH,WindSpeedGustMPH,Humidity,HourlyPrecipIn,Conditions,Clouds,dailyrainin,SoftwareType,DateUTC
2013-04-26 00:09:00,72.2,71.0,30.07,NE,49,0.0,1.0,96,0.00,,,0.00,weatherlink.com 1.10,2013-04-25 14:09:00,
2013-04-26 00:24:00,72.1,71.0,30.06,ENE,74,0.0,1.0,96,0.00,,,0.00,weatherlink.com 1.10,2013-04-25 14:24:00,
2013-04-26 00:39:00,72.3,71.0,30.06,NNE,24,1.0,2.0,95,0.00,,,0.00,weatherlink.com 1.10,2013-04-25 14:39:00,
2013-04-26 00:54:00,72.4,71.0,30.06,ESE,107,0.0,2.0,95,0.00,,,0.00,weatherlink.com 1.10,2013-04-25 14:54:00,
2013-04-26 01:09:00,72.1,71.0,30.05,East,100,0.0,1.0,95,0.00,,,0.00,weatherlink.com 1.10,2013-04-25 15:09:00,
2013-04-26 01:24:00,71.8,70.0,30.05,NNW,339,0.0,1.0,95,0.00,,,0.00,weatherlink.com 1.10,2013-04-25 15:24:00,
2013-04-26 01:39:00,71.7,71.0,30.04,NNE,25,0.0,3.0,96,0.00,,,0.00,weatherlink.com 1.10,2013-04-25 15:39:00,
2013-04-26 01:54:00,71.8,71.0,30.04,NNE,27,0.0,1.0,96,0.00,,,0.00,weatherlink.com 1.10,2013-04-25 15:54:00,
2013-04-26 02:09:00,71.9,71.0,30.04,NNE,29,0.0,0.0,96,0.00,,,0.00,weatherlink.com 1.10,2013-04-25 16:09:00,
2013-04-26 02:24:00,71.7,71.0,30.03,NNE,29,0.0,0.0,96,0.00,,,0.00,weatherlink.com 1.10,2013-04-25 16:24:00,
2013-04-26 02:39:00,71.5,70.0,30.03,NE,34,0.0,0.0,96,0.00,,,0.00,weatherlink.com 1.10,2013-04-25 16:39:00,
2013-04-26 02:54:00,71.6,71.0,30.03,NE,34,0.0,1.0,97,0.00,,,0.00,weatherlink.com 1.10,2013-04-25 16:54:00,
2013-04-26 03:09:00,71.8,71.0,30.03,SSE,155,0.0,0.0,97,0.00,,,0.00,weatherlink.com 1.10,2013-04-25 17:09:00,
2013-04-26 03:24:00,72.0,71.0,30.02,NNE,13,1.0,1.0,97,0.00,,,0.00,weatherlink.com 1.10,2013-04-25 17:24:00,
2013-04-26 03:39:00,72.1,71.0,30.03,NE,55,0.0,1.0,97,0.00,,,0.00,weatherlink.com 1.10,2013-04-25 17:39:00,
2013-04-26 03:54:00,72.1,71.0,30.03,West,264,0.0,1.0,97,0.00,,,0.00,weatherlink.com 1.10,2013-04-25 17:54:00,
2013-04-26 04:09:00,72.1,71.0,30.03,West,263,0.0,0.0,97,0.00,,,0.00,weatherlink.com 1.10,2013-04-25 18:09:00,
2013-04-26 04:39:00,72.0,71.0,30.02,ESE,117,0.0,0.0,97,0.00,,,0.00,weatherlink.com 1.10,2013-04-25 18:39:00,
2013-04-26 04:54:00,71.9,71.0,30.03,NNE,29,0.0,2.0,97,0.00,,,0.00,weatherlink.com 1.10,2013-04-25 18:54:00,
2013-04-26 05:09:00,71.9,71.0,30.03,NNW,339,0.0,0.0,97,0.00,,,0.00,weatherlink.com 1.10,2013-04-25 19:09:00,
2013-04-26 05:24:00,71.8,71.0,30.03,North,7,2.0,4.0,97,0.00,,,0.00,weatherlink.com 1.10,2013-04-25 19:24:00,
2013-04-26 05:39:00,72.0,71.0,30.04,NW,321,0.0,3.0,97,0.00,,,0.00,weatherlink.com 1.10,2013-04-25 19:39:00,
2013-04-26 05:54:00,72.2,71.0,30.04,ENE,63,0.0,2.0,97,0.00,,,0.00,weatherlink.com 1.10,2013-04-25 19:54:00,
2013-04-26 06:09:00,72.1,71.0,30.04,ENE,70,0.0,1.0,97,0.00,,,0.00,weatherlink.com 1.10,2013-04-25 20:09:00,
2013-04-26 06:24:00,71.9,71.0,30.05,ENE,70,0.0,0.0,97,0.00,,,0.00,weatherlink.com 1.10,2013-04-25 20:24:00,
2013-04-26 06:39:00,71.9,71.0,30.05,SSW,193,0.0,0.0,97,0.00,,,0.00,weatherlink.com 1.10,2013-04-25 20:39:00,
2013-04-26 06:54:00,72.0,71.0,30.05,ENE,57,0.0,2.0,98,0.00,,,0.00,weatherlink.com 1.10,2013-04-25 20:54:00,
2013-04-26 07:09:00,72.5,72.0,30.06,South,175,2.0,2.0,97,0.00,,,0.00,weatherlink.com 1.10,2013-04-25 21:09:00,
2013-04-26 07:24:00,73.0,72.0,30.07,NE,46,0.0,2.0,96,0.00,,,0.00,weatherlink.com 1.10,2013-04-25 21:24:00,
2013-04-26 07:39:00,74.5,73.0,30.07,SW,232,0.0,5.0,95,0.00,,,0.00,weatherlink.com 1.10,2013-04-25 21:39:00,
2013-04-26 07:54:00,75.3,73.0,30.08,ESE,122,1.0,4.0,92,0.00,,,0.00,weatherlink.com 1.10,2013-04-25 21:54:00,
2013-04-26 08:10:00,75.2,73.0,30.08,ENE,58,0.0,5.0,92,0.00,,,0.00,weatherlink.com 1.10,2013-04-25 22:10:00,
2013-04-26 08:25:00,75.0,72.0,30.09,West,271,0.0,6.0,91,0.00,,,0.00,weatherlink.com 1.10,2013-04-25 22:25:00,
2013-04-26 08:40:00,75.3,72.0,30.09,SW,217,0.0,9.0,90,0.00,,,0.00,weatherlink.com 1.10,2013-04-25 22:40:00,
2013-04-26 08:55:00,75.4,73.0,30.09,SE,127,1.0,3.0,92,0.00,,,0.00,weatherlink.com 1.10,2013-04-25 22:55:00,
2013-04-26 09:10:00,75.8,73.0,30.10,SE,146,5.0,8.0,90,0.00,,,0.00,weatherlink.com 1.10,2013-04-25 23:10:00,
2013-04-26 09:25:00,75.4,72.0,30.10,SSE,153,2.0,3.0,90,0.00,,,0.00,weatherlink.com 1.10,2013-04-25 23:25:00,
2013-04-26 09:40:00,76.2,73.0,30.10,SSW,202,1.0,8.0,90,0.00,,,0.00,weatherlink.com 1.10,2013-04-25 23:40:00,
2013-04-26 09:55:00,77.8,73.0,30.10,South,169,0.0,7.0,86,0.00,,,0.00,weatherlink.com 1.10,2013-04-25 23:55:00,
2013-04-26 10:10:00,77.8,73.0,30.09,WSW,241,0.0,10.0,84,0.00,,,0.00,weatherlink.com 1.10,2013-04-26 00:10:00,
2013-04-26 10:25:00,78.5,73.0,30.09,NNE,27,6.0,12.0,83,0.00,,,0.00,weatherlink.com 1.10,2013-04-26 00:25:00,
2013-04-26 10:40:00,80.3,74.0,30.09,SW,225,6.0,9.0,82,0.00,,,0.00,weatherlink.com 1.10,2013-04-26 00:40:00,
2013-04-26 10:55:00,80.0,73.0,30.09,South,176,1.0,10.0,80,0.00,,,0.00,weatherlink.com 1.10,2013-04-26 00:55:00,
2013-04-26 11:10:00,80.0,73.0,30.08,NE,52,1.0,11.0,79,0.00,,,0.00,weatherlink.com 1.10,2013-04-26 01:10:00,
2013-04-26 11:25:00,79.4,74.0,30.08,WSW,247,4.0,10.0,82,0.00,,,0.00,weatherlink.com 1.10,2013-04-26 01:25:00,
2013-04-26 11:40:00,79.5,73.0,30.07,SSW,193,0.0,12.0,81,0.00,,,0.00,weatherlink.com 1.10,2013-04-26 01:40:00,
2013-04-26 11:55:00,79.2,72.0,30.06,WNW,289,2.0,14.0,79,0.00,,,0.00,weatherlink.com 1.10,2013-04-26 01:55:00,
2013-04-26 12:10:00,79.0,73.0,30.06,East,96,1.0,11.0,81,0.00,,,0.00,weatherlink.com 1.10,2013-04-26 02:10:00,
2013-04-26 12:25:00,80.4,73.0,30.05,ENE,72,5.0,12.0,79,0.00,,,0.00,weatherlink.com 1.10,2013-04-26 02:25:00,
2013-04-26 12:40:00,79.9,71.0,30.05,ENE,74,6.0,15.0,75,0.00,,,0.00,weatherlink.com 1.10,2013-04-26 02:40:00,
2013-04-26 12:55:00,78.9,72.0,30.05,West,272,4.0,8.0,80,0.00,,,0.00,weatherlink.com 1.10,2013-04-26 02:55:00,
2013-04-26 13:10:00,81.9,73.0,30.04,SSW,213,2.0,9.0,74,0.00,,,0.00,weatherlink.com 1.10,2013-04-26 03:10:00,
2013-04-26 13:26:00,81.5,72.0,30.03,SE,139,5.0,11.0,73,0.00,,,0.00,weatherlink.com 1.10,2013-04-26 03:26:00,
2013-04-26 13:41:00,81.8,73.0,30.02,ESE,108,4.0,12.0,74,0.00,,,0.00,weatherlink.com 1.10,2013-04-26 03:41:00,
2013-04-26 13:56:00,81.2,73.0,30.02,WSW,255,4.0,10.0,76,0.00,,,0.00,weatherlink.com 1.10,2013-04-26 03:56:00,
2013-04-26 14:11:00,79.4,73.0,30.02,East,89,4.0,9.0,80,0.00,,,0.00,weatherlink.com 1.10,2013-04-26 04:11:00,
2013-04-26 14:26:00,81.1,72.0,30.02,SE,128,4.0,10.0,73,0.00,,,0.00,weatherlink.com 1.10,2013-04-26 04:26:00,
2013-04-26 14:41:00,79.7,70.0,30.02,South,185,2.0,7.0,72,0.00,,,0.00,weatherlink.com 1.10,2013-04-26 04:41:00,
2013-04-26 14:56:00,80.9,71.0,30.02,SSW,202,2.0,9.0,72,0.00,,,0.00,weatherlink.com 1.10,2013-04-26 04:56:00,
2013-04-26 15:11:00,80.6,71.0,30.03,SE,141,4.0,6.0,73,0.00,,,0.00,weatherlink.com 1.10,2013-04-26 05:11:00,
2013-04-26 15:26:00,80.5,72.0,30.02,NNE,15,4.0,9.0,76,0.00,,,0.00,weatherlink.com 1.10,2013-04-26 05:26:00,
2013-04-26 15:41:00,78.7,71.0,30.03,NW,314,1.0,12.0,76,0.00,,,0.00,weatherlink.com 1.10,2013-04-26 05:41:00,
2013-04-26 15:56:00,76.7,70.0,30.02,ENE,60,0.0,5.0,80,0.00,,,0.00,weatherlink.com 1.10,2013-04-26 05:56:00,
2013-04-26 16:11:00,76.3,70.0,30.03,SW,234,4.0,6.0,81,0.00,,,0.00,weatherlink.com 1.10,2013-04-26 06:11:00,
2013-04-26 16:26:00,78.0,71.0,30.04,WSW,238,0.0,4.0,79,0.00,,,0.00,weatherlink.com 1.10,2013-04-26 06:26:00,
2013-04-26 16:41:00,77.6,69.0,30.04,West,266,1.0,7.0,74,0.00,,,0.00,weatherlink.com 1.10,2013-04-26 06:41:00,
2013-04-26 16:56:00,76.6,69.0,30.04,NNE,13,0.0,2.0,78,0.00,,,0.00,weatherlink.com 1.10,2013-04-26 06:56:00,
2013-04-26 17:11:00,75.6,69.0,30.04,East,86,0.0,1.0,79,0.00,,,0.00,weatherlink.com 1.10,2013-04-26 07:11:00,
2013-04-26 17:26:00,74.9,69.0,30.04,NNW,347,0.0,6.0,81,0.00,,,0.00,weatherlink.com 1.10,2013-04-26 07:26:00,
2013-04-26 17:41:00,74.1,69.0,30.04,ENE,75,0.0,3.0,84,0.00,,,0.00,weatherlink.com 1.10,2013-04-26 07:41:00,
2013-04-26 17:56:00,73.8,69.0,30.04,NNW,347,0.0,1.0,86,0.00,,,0.00,weatherlink.com 1.10,2013-04-26 07:56:00,
2013-04-26 18:11:00,72.9,69.0,30.04,NE,37,0.0,1.0,88,0.00,,,0.00,weatherlink.com 1.10,2013-04-26 08:11:00,
2013-04-26 18:26:00,72.3,69.0,30.05,NE,34,0.0,0.0,89,0.00,,,0.00,weatherlink.com 1.10,2013-04-26 08:26:00,
2013-04-26 18:41:00,72.0,69.0,30.05,NE,40,0.0,0.0,90,0.00,,,0.00,weatherlink.com 1.10,2013-04-26 08:41:00,
2013-04-26 18:56:00,71.9,69.0,30.06,NNE,17,0.0,1.0,91,0.00,,,0.00,weatherlink.com 1.10,2013-04-26 08:56:00,
2013-04-26 19:11:00,72.4,70.0,30.06,NE,34,1.0,2.0,91,0.00,,,0.00,weatherlink.com 1.10,2013-04-26 09:11:00,
2013-04-26 19:26:00,72.7,70.0,30.07,ENE,74,0.0,0.0,90,0.00,,,0.00,weatherlink.com 1.10,2013-04-26 09:26:00,
2013-04-26 19:41:00,73.0,70.0,30.07,ESE,105,0.0,1.0,89,0.00,,,0.00,weatherlink.com 1.10,2013-04-26 09:41:00,
2013-04-26 19:56:00,72.8,70.0,30.08,NE,39,0.0,1.0,89,0.00,,,0.00,weatherlink.com 1.10,2013-04-26 09:56:00,
2013-04-26 20:11:00,72.7,69.0,30.08,NW,312,0.0,2.0,87,0.00,,,0.00,weatherlink.com 1.10,2013-04-26 10:11:00,
2013-04-26 20:26:00,72.8,68.0,30.09,ESE,119,0.0,3.0,86,0.00,,,0.00,weatherlink.com 1.10,2013-04-26 10:26:00,
2013-04-26 20:41:00,72.6,69.0,30.09,East,93,0.0,1.0,87,0.00,,,0.00,weatherlink.com 1.10,2013-04-26 10:41:00,
2013-04-26 20:56:00,72.0,69.0,30.09,NNW,328,0.0,1.0,89,0.00,,,0.00,weatherlink.com 1.10,2013-04-26 10:56:00,
2013-04-26 21:11:00,71.4,69.0,30.09,NE,52,0.0,1.0,92,0.00,,,0.00,weatherlink.com 1.10,2013-04-26 11:11:00,
2013-04-26 21:26:00,71.0,69.0,30.09,North,10,0.0,0.0,93,0.00,,,0.00,weatherlink.com 1.10,2013-04-26 11:26:00,
2013-04-26 21:41:00,71.0,69.0,30.09,NE,55,0.0,1.0,93,0.00,,,0.00,weatherlink.com 1.10,2013-04-26 11:41:00,
2013-04-26 21:56:00,70.7,69.0,30.09,NNE,21,0.0,1.0,93,0.00,,,0.00,weatherlink.com 1.10,2013-04-26 11:56:00,
2013-04-26 22:12:00,70.7,69.0,30.09,NE,51,0.0,1.0,94,0.00,,,0.00,weatherlink.com 1.10,2013-04-26 12:12:00,
2013-04-26 22:27:00,70.3,69.0,30.08,ENE,62,0.0,1.0,94,0.00,,,0.00,weatherlink.com 1.10,2013-04-26 12:27:00,
2013-04-26 22:42:00,69.5,68.0,30.07,ENE,62,0.0,0.0,95,0.00,,,0.00,weatherlink.com 1.10,2013-04-26 12:42:00,
2013-04-26 22:57:00,69.1,68.0,30.07,ENE,57,0.0,1.0,96,0.00,,,0.00,weatherlink.com 1.10,2013-04-26 12:57:00,
2013-04-26 23:11:00,68.7,68.0,30.07,ENE,58,0.0,1.0,97,0.00,,,0.00,weatherlink.com 1.10,2013-04-26 13:11:00,
2013-04-26 23:26:00,68.6,68.0,30.07,NE,56,0.0,2.0,97,0.00,,,0.00,weatherlink.com 1.10,2013-04-26 13:26:00,
2013-04-26 23:41:00,68.7,68.0,30.06,ENE,76,1.0,1.0,96,0.00,,,0.00,weatherlink.com 1.10,2013-04-26 13:41:00,
2013-04-26 23:56:00,68.4,67.0,30.06,NNE,27,0.0,1.0,96,0.00,,,0.00,weatherlink.com 1.10,2013-04-26 13:56:00,